| time (UTC) | temp C | wind direction | speed KPH | gust KPH | rain 1hr cm | rain 24hr cm | rain mn cm | humidity % | barometer mb |
| 20260506224511 | 9 | 208 | 8.0 | 24.1 | 0.05 | 0.71 | 0.05 | 91 | 1010.2 |
| 20260506223010 | 9 | 236 | 4.8 | 17.7 | 0.05 | 0.69 | 0.05 | 91 | 1010.1 |
| 20260506221509 | 9 | 178 | 4.8 | 19.3 | 0.03 | 0.66 | 0.03 | 91 | 1010.0 |
| 20260506220005 | 9 | 167 | 11.3 | 22.5 | 0.05 | 0.66 | 0.03 | 91 | 1009.9 |
| 20260506214502 | 9 | 182 | 8.0 | 17.7 | 0.05 | 0.64 | 0.64 | 92 | 1009.8 |
| 20260506213059 | 9 | 186 | 3.2 | 19.3 | 0.05 | 0.64 | 0.64 | 92 | 1009.7 |
| 20260506211558 | 10 | 158 | 8.0 | 24.1 | 0.08 | 0.64 | 0.64 | 92 | 1009.6 |
| 20260506210109 | 10 | 217 | 4.8 | 17.7 | 0.08 | 0.61 | 0.61 | 92 | 1009.6 |
| 20260506204554 | 10 | 156 | 4.8 | 14.5 | 0.08 | 0.61 | 0.61 | 92 | 1009.6 |
| 20260506203055 | 10 | 179 | 6.4 | 14.5 | 0.10 | 0.58 | 0.58 | 92 | 1009.6 |
| 20260506201551 | 10 | 188 | 4.8 | 22.5 | 0.13 | 0.56 | 0.56 | 92 | 1009.4 |
| 20260506200129 | 10 | 274 | 6.4 | 25.7 | 0.15 | 0.53 | 0.53 | 92 | 1009.3 |
| 20260506194547 | 10 | 160 | 8.0 | 16.1 | 0.15 | 0.51 | 0.51 | 92 | 1009.1 |
| 20260506193046 | 10 | 136 | 0.0 | 16.1 | 0.15 | 0.48 | 0.48 | 91 | 1009.0 |
| 20260506191547 | 10 | 177 | 4.8 | 16.1 | 0.15 | 0.43 | 0.43 | 91 | 1008.9 |
| 20260506190044 | 10 | 198 | 6.4 | 19.3 | 0.15 | 0.41 | 0.41 | 91 | 1008.7 |
| 20260506184540 | 10 | 118 | 9.7 | 20.9 | 0.15 | 0.36 | 0.36 | 91 | 1008.6 |
| 20260506183037 | 10 | 184 | 3.2 | 19.3 | 0.13 | 0.33 | 0.33 | 91 | 1008.3 |
| 20260506181538 | 10 | 212 | 6.4 | 20.9 | 0.10 | 0.28 | 0.28 | 91 | 1008.1 |
| 20260506180040 | 10 | 200 | 6.4 | 17.7 | 0.08 | 0.23 | 0.23 | 91 | 1008.0 |
| 20260506174531 | 10 | 144 | 8.0 | 24.1 | 0.08 | 0.23 | 0.23 | 91 | 1007.8 |
| 20260506173028 | 10 | 206 | 9.7 | 20.9 | 0.08 | 0.20 | 0.20 | 91 | 1007.6 |
| 20260506171543 | 10 | 161 | 4.8 | 17.7 | 0.08 | 0.18 | 0.18 | 91 | 1007.4 |
| 20260506170024 | 10 | 191 | 6.4 | 16.1 | 0.08 | 0.15 | 0.15 | 90 | 1007.3 |
| 20260506164523 | 11 | 250 | 8.0 | 19.3 | 0.10 | 0.15 | 0.15 | 90 | 1007.3 |
| 20260506163025 | 11 | 203 | 4.8 | 27.4 | 0.10 | 0.13 | 0.13 | 89 | 1007.3 |
| 20260506161534 | 11 | 236 | 4.8 | 19.3 | 0.10 | 0.10 | 0.10 | 88 | 1007.3 |
| 20260506160018 | 11 | 171 | 4.8 | 20.9 | 0.08 | 0.08 | 0.08 | 87 | 1007.2 |
| 20260506154515 | 11 | 130 | 6.4 | 25.7 | 0.05 | 0.05 | 0.05 | 85 | 1007.2 |
| 20260506153013 | 11 | 150 | 1.6 | 19.3 | 0.03 | 0.03 | 0.03 | 82 | 1007.1 |
| 20260506151512 | 11 | 209 | 6.4 | 19.3 | 0.00 | 0.00 | 0.00 | 81 | 1007.0 |
| 20260506150011 | 12 | 242 | 8.0 | 19.3 | 0.00 | 0.00 | 0.00 | 81 | 1006.9 |
| 20260506144511 | 12 | 182 | 9.7 | 17.7 | 0.00 | 0.08 | 0.00 | 81 | 1006.8 |
| 20260506143009 | 12 | 161 | 8.0 | 16.1 | 0.00 | 0.08 | 0.00 | 83 | 1006.8 |
| 20260506141506 | 12 | 225 | 4.8 | 19.3 | 0.00 | 0.08 | 0.00 | 83 | 1006.8 |
| 20260506140005 | 12 | 207 | 9.7 | 22.5 | 0.00 | 0.08 | 0.00 | 83 | 1006.7 |
| 20260506134505 | 12 | 187 | 8.0 | 29.0 | 0.00 | 0.08 | 0.00 | 83 | 1006.6 |
| 20260506133002 | 12 | 114 | 14.5 | 30.6 | 0.00 | 0.08 | 0.00 | 82 | 1006.6 |
| 20260506131503 | 12 | 244 | 14.5 | 35.4 | 0.00 | 0.08 | 0.00 | 82 | 1006.5 |
| 20260506130059 | 13 | 174 | 8.0 | 32.2 | 0.00 | 0.08 | 0.00 | 81 | 1006.3 |
| 20260506124605 | 13 | 172 | 12.9 | 29.0 | 0.00 | 0.08 | 0.00 | 80 | 1006.1 |
| 20260506123057 | 13 | 121 | 12.9 | 29.0 | 0.00 | 0.08 | 0.00 | 81 | 1005.8 |
| 20260506121605 | 14 | 244 | 11.3 | 22.5 | 0.00 | 0.08 | 0.00 | 81 | 1005.7 |
| 20260506120055 | 14 | 198 | 9.7 | 24.1 | 0.00 | 0.08 | 0.00 | 79 | 1005.6 |
| 20260506114555 | 14 | 217 | 11.3 | 27.4 | 0.00 | 0.08 | 0.00 | 78 | 1005.5 |
| 20260506113053 | 15 | 197 | 11.3 | 24.1 | 0.00 | 0.08 | 0.00 | 77 | 1005.5 |
| 20260506111610 | 15 | 157 | 6.4 | 25.7 | 0.00 | 0.08 | 0.00 | 74 | 1005.4 |
| 20260506110054 | 15 | 185 | 9.7 | 17.7 | 0.00 | 0.08 | 0.00 | 72 | 1005.5 |
| 20260506104551 | 15 | 174 | 9.7 | 17.7 | 0.00 | 0.08 | 0.00 | 73 | 1005.3 |
| 20260506103051 | 15 | 207 | 8.0 | 16.1 | 0.00 | 0.08 | 0.00 | 73 | 1005.4 |
| 20260506101550 | 15 | 231 | 3.2 | 17.7 | 0.00 | 0.08 | 0.00 | 73 | 1005.2 |
| 20260506100049 | 15 | 199 | 8.0 | 17.7 | 0.00 | 0.08 | 0.00 | 71 | 1005.1 |
| 20260506094551 | 15 | 200 | 4.8 | 14.5 | 0.00 | 0.08 | 0.00 | 72 | 1005.1 |
| 20260506093053 | 15 | 226 | 8.0 | 19.3 | 0.00 | 0.08 | 0.00 | 71 | 1005.1 |
| 20260506091547 | 15 | 190 | 3.2 | 12.9 | 0.00 | 0.08 | 0.00 | 70 | 1005.0 |
| 20260506090046 | 15 | 204 | 3.2 | 16.1 | 0.00 | 0.08 | 0.00 | 70 | 1004.9 |
| 20260506084543 | 15 | 214 | 3.2 | 19.3 | 0.00 | 0.08 | 0.00 | 71 | 1004.9 |
| 20260506083051 | 15 | 216 | 3.2 | 16.1 | 0.00 | 0.08 | 0.00 | 72 | 1004.7 |
| 20260506081546 | 15 | 236 | 3.2 | 16.1 | 0.00 | 0.08 | 0.00 | 72 | 1004.7 |
| 20260506073034 | 14 | 192 | 9.7 | 17.7 | 0.00 | 0.08 | 0.00 | 75 | 1004.9 |
| 20260506071530 | 13 | 225 | 4.8 | 11.3 | 0.00 | 0.08 | 0.00 | 76 | 1004.8 |
| 20260506070127 | 13 | 209 | 4.8 | 17.7 | 0.00 | 0.08 | 0.00 | 76 | 1004.8 |
| 20260506061532 | 12 | 51 | 0.0 | 0.0 | 0.00 | 0.08 | 0.00 | 83 | 1004.9 |
| 20260506044507 | 12 | 195 | 1.6 | 8.0 | 0.00 | 0.08 | 0.00 | 82 | 1005.1 |
| 20260506043008 | 12 | 200 | 3.2 | 9.7 | 0.00 | 0.08 | 0.00 | 81 | 1005.2 |
| 20260506041505 | 12 | 217 | 3.2 | 8.0 | 0.00 | 0.08 | 0.00 | 80 | 1005.2 |
| 20260506040002 | 12 | 224 | 0.0 | 12.9 | 0.00 | 0.08 | 0.00 | 79 | 1005.3 |
| 20260506034604 | 12 | 191 | 6.4 | 17.7 | 0.00 | 0.08 | 0.00 | 79 | 1005.4 |
| 20260506033100 | 12 | 184 | 3.2 | 11.3 | 0.00 | 0.08 | 0.00 | 78 | 1005.4 |
| 20260506031601 | 12 | 199 | 0.0 | 3.2 | 0.00 | 0.08 | 0.00 | 77 | 1005.4 |
| 20260506030059 | 12 | 200 | 0.0 | 6.4 | 0.00 | 0.08 | 0.00 | 77 | 1005.6 |
| 20260506024601 | 12 | 186 | 3.2 | 8.0 | 0.00 | 0.08 | 0.00 | 77 | 1005.8 |
| 20260506023054 | 12 | 200 | 0.0 | 6.4 | 0.00 | 0.08 | 0.00 | 77 | 1005.8 |
| 20260506021552 | 12 | 196 | 1.6 | 6.4 | 0.00 | 0.08 | 0.00 | 79 | 1005.9 |
| 20260506020106 | 11 | 171 | 1.6 | 9.7 | 0.00 | 0.08 | 0.00 | 81 | 1006.1 |
| 20260506014607 | 11 | 80 | 0.0 | 3.2 | 0.00 | 0.08 | 0.00 | 84 | 1006.2 |
| 20260506013050 | 11 | 80 | 0.0 | 0.0 | 0.00 | 0.08 | 0.00 | 85 | 1006.5 |
| 20260506011611 | 11 | 80 | 0.0 | 4.8 | 0.00 | 0.08 | 0.00 | 85 | 1006.6 |
| 20260506010048 | 11 | 80 | 0.0 | 6.4 | 0.00 | 0.08 | 0.00 | 84 | 1006.4 |
| 20260506004559 | 11 | 79 | 0.0 | 1.6 | 0.00 | 0.08 | 0.00 | 84 | 1006.4 |
| 20260506003042 | 11 | 67 | 0.0 | 4.8 | 0.00 | 0.08 | 0.00 | 83 | 1006.5 |
| 20260506001544 | 12 | 72 | 0.0 | 0.0 | 0.00 | 0.08 | 0.00 | 82 | 1006.6 |
| 20260505234543 | 12 | 90 | 0.0 | 3.2 | 0.00 | 0.08 | 0.00 | 81 | 1006.8 |
| 20260505233033 | 12 | 61 | 0.0 | 4.8 | 0.00 | 0.08 | 0.00 | 79 | 1006.9 |
| 20260505231530 | 13 | 85 | 0.0 | 3.2 | 0.00 | 0.08 | 0.00 | 78 | 1007.1 |
| 20260505230049 | 13 | 85 | 1.6 | 4.8 | 0.00 | 0.08 | 0.00 | 76 | 1007.1 |